Flag for French Guiana Past Weather in Saint-Laurent-du-Maroni, French Guiana — Yesterday and Last 2 Weeks

Now
72 °F

Passing clouds.


Feels Like: 67 °F
Forecast: 75 / 89 °F
Wind: 2 mph from North

Location: Johan A. Pengel

Current Time: Jul 23, 2017 at 1:42:03 am

Latest Report: Jul 23, 2017 at 1:00 am


Visibility: N/A

Pressure: 29.98 "Hg

Humidity: 94%

Dew Point: 70 °F

Location of Saint-Laurent-du-MaroniLocation

Past Weather in Saint-Laurent-du-Maroni — Graph

°F

Saint-Laurent-du-Maroni Temperature Yesterday

Maximum temperature yesterday: 86 °F (at 12:00 pm)
Minimum temperature yesterday: 72 °F (at 8:00 pm)
Average temperature yesterday: 76 °F

High & Low Weather Summary for the Past Weeks

 TemperatureHumidityPressure
High91 °F (Jul 9, 3:00 pm)100% (Jul 8, 5:00 pm)30.01 "Hg (Jul 8, 5:00 pm)
Low72 °F (Jul 22, 8:00 pm)49% (Jul 11, 3:00 pm)29.83 "Hg (Jul 10, 4:00 pm)
Average80 °F85%29.94 "Hg
* Reported Jul 8 12:00 am — Jul 23 12:00 am, Saint-Laurent-du-Maroni. Weather by CustomWeather, © 2017

Note: Actual official high and low records may vary slightly from our data, if they occured in-between our weather recording intervals... More about our weather records

Advertising

Saint-Laurent-du-Maroni Weather History for the Previous 24 Hours

Scroll right to see more
 ConditionsComfort  
Time TempWeatherWind HumidityBarometerVisibility
12:00 am
Sun, Jul 23
72 °FPassing clouds.3 mph94%29.98 "HgN/A
11:00 pm
Sat, Jul 22
72 °FPassing clouds.3 mph94%29.98 "HgN/A
10:00 pm72 °FPassing clouds.1 mph100%29.98 "HgN/A
9:00 pm72 °FLight rain. Passing clouds.3 mph94%29.95 "HgN/A
8:00 pm72 °FLight rain. Passing clouds.3 mph100%29.95 "Hg5 mi
7:00 pm73 °FSprinkles. Passing clouds.8 mph94%29.98 "Hg4 mi
6:24 pm75 °FRain showers. Scattered clouds.10 mph100%29.98 "Hg2 mi
6:00 pm75 °FScattered showers. Scattered clouds.6 mph89%29.95 "HgN/A
5:00 pm77 °FSprinkles. Scattered clouds.10 mph89%29.92 "HgN/A
4:32 pm75 °FSprinkles. Scattered clouds.6 mph94%29.92 "HgN/A
4:00 pm77 °FSprinkles. Scattered clouds.8 mph94%29.95 "Hg5 mi
3:00 pm77 °FScattered showers. Scattered clouds.5 mph100%29.95 "HgN/A
2:00 pm84 °FSprinkles. Partly sunny.6 mph74%29.98 "HgN/A
1:00 pm86 °FScattered showers. Scattered clouds.9 mph66%29.95 "HgN/A
12:00 pm86 °FScattered showers. Scattered clouds.9 mph66%29.98 "HgN/A
11:00 am82 °FScattered showers. Scattered clouds.5 mph79%30.01 "HgN/A
10:00 am79 °FScattered clouds.5 mph89%30.01 "HgN/A
9:00 am77 °FPartly sunny.3 mph94%30.01 "HgN/A
8:00 am75 °FScattered clouds.5 mph94%29.98 "HgN/A
7:00 am75 °FPartly sunny.3 mph94%29.98 "HgN/A
6:00 am75 °FPassing clouds.2 mph100%29.95 "HgN/A
5:00 am75 °FFog.2 mph100%29.92 "Hg3 mi
4:00 am75 °FFog.2 mph100%29.92 "Hg3 mi
3:00 am75 °FPassing clouds.3 mph94%29.92 "HgN/A
2:00 am75 °FPassing clouds.No wind100%29.95 "HgN/A
1:00 am75 °FPassing clouds.No wind100%29.98 "HgN/A
Weather by CustomWeather, © 2017

See weather overviewHow to use our weather pages